| time (UTC) | temp F | wind direction | speed MPH | gust MPH | rain 1hr in | rain 24hr in | rain mn in | humidity % | barometer mb |
| 20260507085612 | 42 | 325 | 4.0 | 5.0 | 0.00 | 0.00 | 0.00 | 93 | 1014.3 |
| 20260507085523 | 42 | 322 | 4.0 | 6.0 | 0.00 | 0.00 | 0.00 | 93 | 1014.7 |
| 20260507085026 | 42 | 332 | 3.0 | 4.0 | 0.00 | 0.00 | 0.00 | 93 | 1013.7 |
| 20260507084620 | 42 | 317 | 4.0 | 7.0 | 0.00 | 0.00 | 0.00 | 94 | 1014.3 |
| 20260507084519 | 42 | 314 | 4.0 | 6.0 | 0.00 | 0.00 | 0.00 | 94 | 1014.7 |
| 20260507084027 | 42 | 314 | 5.0 | 8.0 | 0.00 | 0.00 | 0.00 | 95 | 1013.7 |
| 20260507083608 | 42 | 317 | 4.0 | 8.0 | 0.00 | 0.00 | 0.00 | 95 | 1014.7 |
| 20260507083600 | 42 | 325 | 4.0 | 8.0 | 0.00 | 0.00 | 0.00 | 95 | 1014.7 |
| 20260507083027 | 42 | 322 | 4.0 | 5.0 | 0.00 | 0.00 | 0.00 | 96 | 1014.0 |
| 20260507082541 | 42 | 340 | 4.0 | 6.0 | 0.00 | 0.00 | 0.00 | 97 | 1014.7 |
| 20260507082529 | 42 | 339 | 3.0 | 6.0 | 0.00 | 0.00 | 0.00 | 97 | 1014.7 |
| 20260507082037 | 42 | 324 | 3.0 | 6.0 | 0.00 | 0.00 | 0.00 | 97 | 1014.0 |
| 20260507081534 | 42 | 320 | 4.0 | 5.0 | 0.00 | 0.00 | 0.00 | 97 | 1014.7 |
| 20260507081526 | 42 | 324 | 3.0 | 4.0 | 0.00 | 0.00 | 0.00 | 97 | 1014.7 |
| 20260507081019 | 42 | 322 | 2.0 | 5.0 | 0.00 | 0.00 | 0.00 | 97 | 1013.7 |
| 20260507080626 | 42 | 319 | 3.0 | 4.0 | 0.00 | 0.00 | 0.00 | 97 | 1014.3 |
| 20260507080548 | 42 | 322 | 3.0 | 5.0 | 0.00 | 0.00 | 0.00 | 97 | 1014.7 |
| 20260507080033 | 42 | 336 | 3.0 | 7.0 | 0.00 | 0.00 | 0.00 | 97 | 1013.7 |
| 20260507075555 | 42 | 313 | 3.0 | 4.0 | 0.00 | 0.00 | 0.00 | 97 | 1014.3 |
| 20260507075527 | 42 | 325 | 3.0 | 4.0 | 0.00 | 0.00 | 0.00 | 97 | 1014.7 |
| 20260507075020 | 42 | 332 | 2.0 | 3.0 | 0.00 | 0.00 | 0.00 | 97 | 1013.7 |
| 20260507074523 | 42 | 313 | 2.0 | 4.0 | 0.00 | 0.00 | 0.00 | 97 | 1014.3 |
| 20260507074057 | 42 | 326 | 1.0 | 3.0 | 0.00 | 0.00 | 0.00 | 97 | 1013.7 |
| 20260507073548 | 42 | 328 | 2.0 | 4.0 | 0.00 | 0.00 | 0.00 | 97 | 1014.7 |
| 20260507073519 | 42 | 332 | 1.0 | 3.0 | 0.00 | 0.00 | 0.00 | 97 | 1014.7 |
| 20260507073022 | 42 | 336 | 3.0 | 4.0 | 0.00 | 0.00 | 0.00 | 97 | 1014.0 |
| 20260507072600 | 42 | 323 | 3.0 | 4.0 | 0.00 | 0.00 | 0.00 | 97 | 1014.7 |
| 20260507072028 | 42 | 321 | 3.0 | 5.0 | 0.00 | 0.00 | 0.00 | 97 | 1014.0 |
| 20260507071555 | 42 | 328 | 2.0 | 4.0 | 0.00 | 0.00 | 0.00 | 97 | 1014.7 |
| 20260507071521 | 42 | 331 | 2.0 | 3.0 | 0.00 | 0.00 | 0.00 | 97 | 1014.7 |
| 20260507071023 | 42 | 310 | 2.0 | 4.0 | 0.00 | 0.00 | 0.00 | 97 | 1014.0 |
| 20260507070534 | 42 | 296 | 4.0 | 6.0 | 0.00 | 0.00 | 0.00 | 97 | 1014.7 |
| 20260507070525 | 42 | 305 | 4.0 | 6.0 | 0.00 | 0.00 | 0.00 | 97 | 1015.0 |
| 20260507070033 | 42 | 325 | 3.0 | 4.0 | 0.00 | 0.00 | 0.00 | 96 | 1014.0 |
| 20260507065559 | 42 | 308 | 3.0 | 6.0 | 0.00 | 0.00 | 0.00 | 96 | 1015.0 |
| 20260507065548 | 42 | 299 | 3.0 | 6.0 | 0.00 | 0.00 | 0.00 | 96 | 1014.7 |
| 20260507065024 | 42 | 315 | 3.0 | 5.0 | 0.00 | 0.00 | 0.00 | 96 | 1014.0 |
| 20260507064535 | 42 | 300 | 3.0 | 5.0 | 0.00 | 0.00 | 0.00 | 96 | 1015.0 |
| 20260507064527 | 42 | 285 | 3.0 | 5.0 | 0.00 | 0.00 | 0.00 | 96 | 1015.0 |
| 20260507064030 | 42 | 324 | 3.0 | 6.0 | 0.00 | 0.00 | 0.00 | 96 | 1014.0 |
| 20260507063540 | 42 | 302 | 3.0 | 5.0 | 0.00 | 0.00 | 0.00 | 96 | 1015.0 |
| 20260507063031 | 42 | 297 | 4.0 | 6.0 | 0.00 | 0.00 | 0.00 | 96 | 1014.0 |
| 20260507062609 | 42 | 307 | 3.0 | 6.0 | 0.00 | 0.00 | 0.00 | 96 | 1015.0 |
| 20260507062519 | 42 | 310 | 4.0 | 6.0 | 0.00 | 0.00 | 0.00 | 96 | 1015.0 |
| 20260507062042 | 42 | 275 | 3.0 | 6.0 | 0.00 | 0.00 | 0.00 | 96 | 1014.3 |
| 20260507061542 | 42 | 290 | 3.0 | 6.0 | 0.00 | 0.00 | 0.00 | 95 | 1015.0 |
| 20260507061524 | 42 | 295 | 3.0 | 6.0 | 0.00 | 0.00 | 0.00 | 95 | 1015.4 |
| 20260507061044 | 42 | 287 | 4.0 | 7.0 | 0.00 | 0.00 | 0.00 | 95 | 1014.3 |
| 20260507060541 | 43 | 283 | 2.0 | 5.0 | 0.00 | 0.00 | 0.00 | 95 | 1015.0 |
| 20260507060024 | 42 | 317 | 4.0 | 7.0 | 0.00 | 0.00 | 0.00 | 94 | 1014.3 |
| 20260507055525 | 42 | 308 | 4.0 | 7.0 | 0.00 | 0.00 | 0.00 | 94 | 1015.4 |
| 20260507055019 | 43 | 293 | 4.0 | 7.0 | 0.00 | 0.00 | 0.00 | 94 | 1014.7 |
| 20260507054650 | 43 | 296 | 5.0 | 8.0 | 0.00 | 0.00 | 0.00 | 94 | 1015.4 |
| 20260507054530 | 43 | 297 | 4.0 | 8.0 | 0.00 | 0.00 | 0.00 | 94 | 1015.7 |
| 20260507054053 | 43 | 294 | 5.0 | 9.0 | 0.00 | 0.00 | 0.00 | 94 | 1014.7 |
| 20260507053604 | 42 | 303 | 4.0 | 8.0 | 0.00 | 0.00 | 0.00 | 94 | 1015.4 |
| 20260507053527 | 42 | 310 | 5.0 | 8.0 | 0.00 | 0.00 | 0.00 | 94 | 1015.7 |
| 20260507053021 | 43 | 313 | 4.0 | 9.0 | 0.00 | 0.00 | 0.00 | 93 | 1014.7 |
| 20260507052615 | 43 | 317 | 5.0 | 9.0 | 0.00 | 0.00 | 0.00 | 93 | 1015.7 |
| 20260507052532 | 43 | 316 | 5.0 | 9.0 | 0.00 | 0.00 | 0.00 | 93 | 1015.4 |
| 20260507052046 | 42 | 319 | 4.0 | 7.0 | 0.00 | 0.00 | 0.00 | 93 | 1014.7 |
| 20260507051536 | 42 | 313 | 4.0 | 6.0 | 0.00 | 0.00 | 0.00 | 93 | 1015.7 |
| 20260507051528 | 42 | 318 | 4.0 | 6.0 | 0.00 | 0.00 | 0.00 | 93 | 1015.7 |
| 20260507051022 | 43 | 320 | 5.0 | 6.0 | 0.00 | 0.00 | 0.00 | 93 | 1015.0 |
| 20260507050544 | 43 | 310 | 4.0 | 7.0 | 0.00 | 0.00 | 0.00 | 93 | 1015.7 |
| 20260507050036 | 43 | 316 | 4.0 | 6.0 | 0.00 | 0.00 | 0.00 | 93 | 1015.0 |
| 20260507045541 | 43 | 324 | 4.0 | 7.0 | 0.00 | 0.00 | 0.00 | 93 | 1015.7 |
| 20260507045520 | 43 | 322 | 4.0 | 5.0 | 0.00 | 0.00 | 0.00 | 93 | 1015.7 |
| 20260507045049 | 43 | 330 | 3.0 | 6.0 | 0.00 | 0.00 | 0.00 | 93 | 1015.0 |
| 20260507044525 | 43 | 307 | 4.0 | 6.0 | 0.00 | 0.00 | 0.00 | 93 | 1015.7 |
| 20260507044039 | 43 | 321 | 4.0 | 7.0 | 0.00 | 0.00 | 0.00 | 93 | 1015.0 |
| 20260507043522 | 43 | 320 | 5.0 | 7.0 | 0.00 | 0.00 | 0.00 | 93 | 1015.7 |
| 20260507043029 | 43 | 321 | 4.0 | 10.0 | 0.00 | 0.00 | 0.00 | 93 | 1014.7 |
| 20260507042527 | 43 | 324 | 5.0 | 7.0 | 0.00 | 0.00 | 0.00 | 93 | 1015.7 |
| 20260507042020 | 43 | 329 | 4.0 | 7.0 | 0.00 | 0.00 | 0.00 | 92 | 1015.0 |
| 20260507041532 | 43 | 329 | 4.0 | 6.0 | 0.00 | 0.00 | 0.00 | 92 | 1015.7 |
| 20260507041523 | 43 | 330 | 4.0 | 6.0 | 0.00 | 0.00 | 0.00 | 92 | 1015.7 |
| 20260507041100 | 43 | 328 | 5.0 | 6.0 | 0.00 | 0.00 | 0.00 | 92 | 1014.7 |
| 20260507040612 | 43 | 310 | 4.0 | 7.0 | 0.00 | 0.00 | 0.00 | 92 | 1015.7 |
| 20260507040528 | 43 | 316 | 5.0 | 7.0 | 0.00 | 0.00 | 0.00 | 92 | 1016.0 |
| 20260507040022 | 44 | 309 | 8.0 | 13.0 | 0.00 | 0.00 | 0.00 | 91 | 1015.0 |
| 20260507035550 | 44 | 313 | 7.0 | 10.0 | 0.00 | 0.00 | 0.00 | 91 | 1016.0 |
| 20260507035037 | 44 | 315 | 9.0 | 15.0 | 0.00 | 0.00 | 0.00 | 91 | 1015.4 |
| 20260507034545 | 44 | 311 | 8.0 | 13.0 | 0.00 | 0.00 | 0.00 | 91 | 1016.0 |
| 20260507034520 | 44 | 310 | 7.0 | 11.0 | 0.00 | 0.00 | 0.00 | 91 | 1016.0 |
| 20260507034108 | 44 | 311 | 7.0 | 9.0 | 0.00 | 0.00 | 0.00 | 92 | 1015.4 |
| 20260507033545 | 44 | 305 | 8.0 | 10.0 | 0.00 | 0.00 | 0.00 | 92 | 1016.4 |
| 20260507033020 | 44 | 311 | 8.0 | 13.0 | 0.00 | 0.00 | 0.00 | 92 | 1015.4 |
| 20260507032539 | 44 | 316 | 8.0 | 13.0 | 0.00 | 0.00 | 0.00 | 92 | 1016.0 |
| 20260507032026 | 44 | 313 | 8.0 | 13.0 | 0.00 | 0.00 | 0.00 | 92 | 1015.4 |
| 20260507031605 | 44 | 312 | 7.0 | 11.0 | 0.00 | 0.00 | 0.00 | 93 | 1016.4 |
| 20260507031527 | 44 | 315 | 8.0 | 12.0 | 0.00 | 0.00 | 0.00 | 93 | 1016.0 |
| 20260507031025 | 44 | 319 | 9.0 | 14.0 | 0.00 | 0.00 | 0.00 | 93 | 1015.4 |
| 20260507030644 | 44 | 316 | 8.0 | 12.0 | 0.00 | 0.00 | 0.00 | 93 | 1016.4 |
| 20260507030552 | 44 | 310 | 7.0 | 12.0 | 0.00 | 0.00 | 0.00 | 93 | 1016.4 |
| 20260507030043 | 44 | 310 | 8.0 | 13.0 | 0.00 | 0.00 | 0.00 | 93 | 1015.4 |
| 20260507025548 | 44 | 315 | 6.0 | 8.0 | 0.00 | 0.00 | 0.00 | 93 | 1016.4 |
| 20260507025519 | 44 | 318 | 6.0 | 8.0 | 0.00 | 0.00 | 0.00 | 93 | 1016.4 |
| 20260507025039 | 44 | 317 | 6.0 | 10.0 | 0.00 | 0.00 | 0.00 | 93 | 1015.4 |
| 20260507024550 | 44 | 316 | 6.0 | 9.0 | 0.00 | 0.00 | 0.00 | 93 | 1016.4 |
| 20260507024533 | 44 | 313 | 6.0 | 9.0 | 0.00 | 0.00 | 0.00 | 93 | 1016.4 |
| 20260507024053 | 44 | 312 | 6.0 | 10.0 | 0.00 | 0.00 | 0.00 | 93 | 1015.7 |
| 20260507023558 | 44 | 312 | 6.0 | 10.0 | 0.00 | 0.00 | 0.00 | 93 | 1016.7 |
| 20260507023245 | 44 | 322 | 4.0 | 8.0 | 0.00 | 0.00 | 0.00 | 94 | 1015.7 |
| 20260507022534 | 44 | 299 | 4.0 | 6.0 | 0.00 | 0.00 | 0.00 | 94 | 1016.7 |
| 20260507022525 | 44 | 295 | 4.0 | 6.0 | 0.00 | 0.00 | 0.00 | 94 | 1016.4 |
| 20260507022037 | 44 | 308 | 4.0 | 8.0 | 0.00 | 0.00 | 0.00 | 94 | 1015.7 |
| 20260507021548 | 44 | 329 | 2.0 | 5.0 | 0.00 | 0.00 | 0.00 | 94 | 1016.7 |
| 20260507021522 | 44 | 316 | 3.0 | 5.0 | 0.00 | 0.00 | 0.00 | 94 | 1016.4 |
| 20260507021102 | 44 | 323 | 3.0 | 6.0 | 0.00 | 0.00 | 0.00 | 94 | 1015.7 |
| 20260507020535 | 44 | 328 | 4.0 | 6.0 | 0.00 | 0.00 | 0.00 | 94 | 1016.7 |
| 20260507020527 | 44 | 324 | 4.0 | 5.0 | 0.00 | 0.00 | 0.00 | 94 | 1016.4 |
| 20260507020045 | 44 | 322 | 3.0 | 6.0 | 0.00 | 0.00 | 0.00 | 94 | 1015.7 |
| 20260507015523 | 44 | 319 | 4.0 | 8.0 | 0.00 | 0.00 | 0.00 | 94 | 1016.4 |
| 20260507015025 | 44 | 317 | 5.0 | 8.0 | 0.00 | 0.00 | 0.00 | 94 | 1015.4 |
| 20260507014519 | 44 | 329 | 4.0 | 5.0 | 0.00 | 0.00 | 0.00 | 95 | 1016.4 |
| 20260507014027 | 44 | 321 | 3.0 | 5.0 | 0.00 | 0.00 | 0.00 | 95 | 1015.7 |
| 20260507013544 | 44 | 296 | 3.0 | 7.0 | 0.00 | 0.00 | 0.00 | 95 | 1016.4 |
| 20260507013533 | 44 | 304 | 3.0 | 6.0 | 0.00 | 0.00 | 0.00 | 95 | 1016.4 |
| 20260507013026 | 44 | 313 | 5.0 | 7.0 | 0.00 | 0.00 | 0.00 | 95 | 1015.7 |
| 20260507012538 | 44 | 319 | 5.0 | 7.0 | 0.00 | 0.00 | 0.00 | 95 | 1016.4 |
| 20260507012023 | 44 | 320 | 3.0 | 5.0 | 0.00 | 0.00 | 0.00 | 95 | 1015.4 |
| 20260507011551 | 44 | 324 | 3.0 | 4.0 | 0.00 | 0.00 | 0.00 | 95 | 1016.4 |
| 20260507011545 | 44 | 325 | 3.0 | 5.0 | 0.00 | 0.00 | 0.00 | 95 | 1016.7 |
| 20260507011019 | 44 | 340 | 2.0 | 4.0 | 0.00 | 0.00 | 0.00 | 95 | 1015.7 |
| 20260507010605 | 44 | 311 | 2.0 | 4.0 | 0.00 | 0.00 | 0.00 | 95 | 1016.7 |
| 20260507010556 | 44 | 316 | 1.0 | 3.0 | 0.00 | 0.00 | 0.00 | 95 | 1016.4 |
| 20260507010024 | 44 | 326 | 1.0 | 3.0 | 0.00 | 0.00 | 0.00 | 95 | 1015.7 |
| 20260507005555 | 44 | 316 | 3.0 | 4.0 | 0.00 | 0.00 | 0.00 | 95 | 1016.4 |
| 20260507005527 | 44 | 307 | 2.0 | 4.0 | 0.00 | 0.00 | 0.00 | 95 | 1016.7 |
| 20260507005046 | 44 | 334 | 1.0 | 3.0 | 0.00 | 0.00 | 0.00 | 94 | 1015.7 |
| 20260507004540 | 44 | 308 | 3.0 | 5.0 | 0.00 | 0.00 | 0.00 | 94 | 1016.7 |
| 20260507004531 | 44 | 309 | 3.0 | 4.0 | 0.00 | 0.00 | 0.00 | 94 | 1016.4 |
| 20260507004148 | 44 | 288 | 3.0 | 5.0 | 0.00 | 0.00 | 0.00 | 94 | 1015.7 |
| 20260507003527 | 44 | 282 | 2.0 | 6.0 | 0.00 | 0.00 | 0.00 | 94 | 1016.4 |
| 20260507003519 | 44 | 278 | 3.0 | 6.0 | 0.00 | 0.00 | 0.00 | 94 | 1016.7 |
| 20260507003042 | 44 | 263 | 1.0 | 3.0 | 0.00 | 0.00 | 0.00 | 94 | 1015.7 |
| 20260507002541 | 44 | 291 | 2.0 | 3.0 | 0.00 | 0.00 | 0.00 | 94 | 1016.4 |
| 20260507002525 | 44 | 285 | 1.0 | 3.0 | 0.00 | 0.00 | 0.00 | 94 | 1016.7 |
| 20260507002053 | 44 | 315 | 1.0 | 2.0 | 0.00 | 0.00 | 0.00 | 93 | 1015.7 |
| 20260507001529 | 44 | 325 | 1.0 | 4.0 | 0.00 | 0.00 | 0.00 | 93 | 1016.4 |
| 20260507001520 | 44 | 316 | 2.0 | 4.0 | 0.00 | 0.00 | 0.00 | 93 | 1016.7 |
| 20260507001040 | 44 | 303 | 1.0 | 5.0 | 0.00 | 0.00 | 0.00 | 93 | 1015.7 |
| 20260507000552 | 44 | 281 | 3.0 | 4.0 | 0.00 | 0.00 | 0.00 | 93 | 1016.7 |
| 20260507000525 | 44 | 299 | 3.0 | 4.0 | 0.00 | 0.00 | 0.00 | 93 | 1016.4 |
| 20260507000050 | 44 | 309 | 3.0 | 6.0 | 0.00 | 0.00 | 0.00 | 92 | 1015.7 |
| 20260506235539 | 44 | 309 | 3.0 | 6.0 | 0.00 | 0.00 | 0.00 | 92 | 1016.7 |
| 20260506235024 | 44 | 321 | 3.0 | 5.0 | 0.00 | 0.00 | 0.00 | 91 | 1015.7 |
| 20260506234547 | 44 | 287 | 2.0 | 5.0 | 0.00 | 0.00 | 0.00 | 91 | 1016.4 |
| 20260506234535 | 44 | 283 | 3.0 | 4.0 | 0.00 | 0.00 | 0.00 | 91 | 1016.7 |
| 20260506234057 | 44 | 272 | 2.0 | 4.0 | 0.00 | 0.00 | 0.00 | 91 | 1015.7 |
| 20260506233551 | 44 | 257 | 2.0 | 6.0 | 0.00 | 0.00 | 0.00 | 91 | 1016.4 |
| 20260506233522 | 44 | 282 | 1.0 | 3.0 | 0.00 | 0.00 | 0.00 | 91 | 1016.7 |
| 20260506233026 | 44 | 277 | 3.0 | 6.0 | 0.00 | 0.00 | 0.00 | 91 | 1015.7 |
| 20260506232557 | 44 | 253 | 2.0 | 5.0 | 0.00 | 0.00 | 0.00 | 92 | 1016.7 |
| 20260506232528 | 44 | 237 | 2.0 | 4.0 | 0.00 | 0.00 | 0.00 | 92 | 1016.4 |
| 20260506232021 | 44 | 277 | 2.0 | 4.0 | 0.00 | 0.00 | 0.00 | 92 | 1015.7 |
| 20260506231602 | 44 | 235 | 3.0 | 5.0 | 0.00 | 0.00 | 0.00 | 92 | 1016.4 |
| 20260506231532 | 44 | 231 | 3.0 | 5.0 | 0.00 | 0.00 | 0.00 | 92 | 1016.4 |
| 20260506231026 | 44 | 247 | 3.0 | 5.0 | 0.00 | 0.00 | 0.00 | 92 | 1015.7 |
| 20260506230555 | 44 | 305 | 3.0 | 5.0 | 0.00 | 0.00 | 0.00 | 92 | 1016.4 |
| 20260506230520 | 44 | 297 | 2.0 | 5.0 | 0.00 | 0.00 | 0.00 | 92 | 1016.7 |
| 20260506230023 | 44 | 240 | 3.0 | 6.0 | 0.00 | 0.00 | 0.00 | 92 | 1015.7 |
| 20260506225525 | 44 | 272 | 6.0 | 7.0 | 0.00 | 0.00 | 0.00 | 92 | 1016.4 |
| 20260506225039 | 44 | 285 | 5.0 | 8.0 | 0.00 | 0.00 | 0.00 | 92 | 1015.7 |
| 20260506224539 | 44 | 279 | 5.0 | 8.0 | 0.00 | 0.00 | 0.00 | 93 | 1016.4 |
| 20260506224531 | 44 | 284 | 5.0 | 7.0 | 0.00 | 0.00 | 0.00 | 93 | 1016.7 |
| 20260506224100 | 45 | 280 | 4.0 | 7.0 | 0.00 | 0.00 | 0.00 | 93 | 1015.7 |
| 20260506223905 | 45 | 297 | 5.0 | 7.0 | 0.00 | 0.00 | 0.00 | 93 | 1016.7 |
| 20260506223610 | 45 | 298 | 5.0 | 7.0 | 0.00 | 0.00 | 0.00 | 93 | 1016.7 |
| 20260506223058 | 45 | 303 | 5.0 | 8.0 | 0.00 | 0.00 | 0.00 | 93 | 1015.7 |
| 20260506222558 | 45 | 289 | 4.0 | 5.0 | 0.00 | 0.00 | 0.00 | 93 | 1016.7 |
| 20260506222540 | 45 | 293 | 5.0 | 6.0 | 0.00 | 0.00 | 0.00 | 93 | 1016.7 |
| 20260506222041 | 45 | 266 | 3.0 | 4.0 | 0.00 | 0.00 | 0.00 | 93 | 1015.7 |
| 20260506221704 | 45 | 286 | 5.0 | 5.0 | 0.00 | 0.00 | 0.00 | 92 | 1016.4 |
| 20260506221518 | 45 | 295 | 3.0 | 5.0 | 0.00 | 0.00 | 0.00 | 92 | 1016.7 |
| 20260506221048 | 45 | 285 | 3.0 | 4.0 | 0.00 | 0.00 | 0.00 | 92 | 1015.7 |
| 20260506220651 | 45 | 327 | 3.0 | 3.0 | 0.00 | 0.00 | 0.00 | 92 | 1016.7 |
| 20260506220524 | 45 | 327 | 2.0 | 3.0 | 0.00 | 0.00 | 0.00 | 92 | 1016.7 |
| 20260506220040 | 45 | 297 | 3.0 | 5.0 | 0.00 | 0.00 | 0.00 | 92 | 1016.0 |
| 20260506215613 | 45 | 313 | 3.0 | 4.0 | 0.00 | 0.00 | 0.00 | 92 | 1016.7 |
| 20260506215546 | 45 | 313 | 2.0 | 4.0 | 0.00 | 0.00 | 0.00 | 92 | 1016.7 |
| 20260506215023 | 45 | 304 | 1.0 | 4.0 | 0.00 | 0.00 | 0.00 | 92 | 1016.0 |
| 20260506214701 | 45 | 350 | 2.0 | 4.0 | 0.00 | 0.00 | 0.00 | 92 | 1016.7 |
| 20260506214543 | 45 | 351 | 2.0 | 4.0 | 0.00 | 0.00 | 0.00 | 92 | 1016.7 |
| 20260506214019 | 45 | 336 | 2.0 | 6.0 | 0.00 | 0.00 | 0.00 | 91 | 1016.0 |
| 20260506213541 | 45 | 346 | 1.0 | 3.0 | 0.00 | 0.00 | 0.00 | 91 | 1016.7 |
| 20260506213530 | 45 | 11 | 1.0 | 3.0 | 0.00 | 0.00 | 0.00 | 91 | 1016.7 |
| 20260506213041 | 45 | 346 | 2.0 | 3.0 | 0.00 | 0.00 | 0.00 | 91 | 1016.0 |
| 20260506212544 | 45 | 319 | 2.0 | 3.0 | 0.00 | 0.00 | 0.00 | 91 | 1017.1 |
| 20260506212025 | 45 | 332 | 2.0 | 4.0 | 0.00 | 0.00 | 0.00 | 91 | 1016.0 |
| 20260506211531 | 45 | 117 | 2.0 | 2.0 | 0.00 | 0.00 | 0.00 | 91 | 1016.7 |
| 20260506211101 | 45 | 30 | 1.0 | 3.0 | 0.00 | 0.00 | 0.00 | 91 | 1016.0 |
| 20260506210548 | 45 | 81 | 0.0 | 2.0 | 0.00 | 0.00 | 0.00 | 91 | 1016.7 |
| 20260506210536 | 45 | 55 | 1.0 | 2.0 | 0.00 | 0.00 | 0.00 | 91 | 1017.1 |
| 20260506210030 | 45 | 50 | 0.0 | 2.0 | 0.00 | 0.00 | 0.00 | 91 | 1015.7 |
| 20260506205524 | 44 | 28 | 0.0 | 2.0 | 0.00 | 0.00 | 0.00 | 92 | 1016.7 |
| 20260506205035 | 45 | 38 | 1.0 | 3.0 | 0.00 | 0.00 | 0.00 | 92 | 1015.7 |
| 20260506204639 | 45 | 57 | 1.0 | 2.0 | 0.00 | 0.00 | 0.00 | 92 | 1016.7 |
| 20260506204520 | 45 | 52 | 2.0 | 3.0 | 0.00 | 0.00 | 0.00 | 92 | 1017.1 |
| 20260506204051 | 45 | 5 | 2.0 | 4.0 | 0.00 | 0.00 | 0.00 | 92 | 1016.0 |
| 20260506203728 | 45 | 340 | 3.0 | 4.0 | 0.00 | 0.00 | 0.00 | 91 | 1016.7 |
| 20260506203534 | 44 | 344 | 3.0 | 4.0 | 0.00 | 0.00 | 0.00 | 91 | 1017.1 |
| 20260506203039 | 45 | 39 | 2.0 | 4.0 | 0.00 | 0.00 | 0.00 | 91 | 1016.4 |
| 20260506202548 | 45 | 335 | 2.0 | 4.0 | 0.00 | 0.00 | 0.00 | 91 | 1017.1 |
| 20260506202522 | 45 | 348 | 3.0 | 6.0 | 0.00 | 0.00 | 0.00 | 91 | 1017.1 |
| 20260506202119 | 45 | 356 | 2.0 | 4.0 | 0.00 | 0.00 | 0.00 | 89 | 1016.0 |
| 20260506201601 | 45 | 1 | 2.0 | 4.0 | 0.00 | 0.00 | 0.00 | 90 | 1016.7 |
| 20260506201546 | 45 | 341 | 2.0 | 3.0 | 0.00 | 0.00 | 0.00 | 89 | 1017.1 |
| 20260506201024 | 45 | 26 | 2.0 | 3.0 | 0.00 | 0.00 | 0.00 | 90 | 1016.0 |
| 20260506200540 | 45 | 5 | 1.0 | 5.0 | 0.00 | 0.00 | 0.00 | 89 | 1016.7 |
| 20260506200522 | 45 | 10 | 1.0 | 3.0 | 0.00 | 0.00 | 0.00 | 89 | 1017.1 |
| 20260506200028 | 45 | 52 | 2.0 | 4.0 | 0.00 | 0.00 | 0.00 | 89 | 1016.0 |
| 20260506195554 | 45 | 84 | 2.0 | 3.0 | 0.00 | 0.00 | 0.00 | 91 | 1017.1 |
| 20260506195520 | 45 | 75 | 2.0 | 3.0 | 0.00 | 0.00 | 0.00 | 90 | 1016.7 |
| 20260506195039 | 44 | 352 | 2.0 | 4.0 | 0.00 | 0.00 | 0.00 | 91 | 1016.0 |
| 20260506194550 | 44 | 322 | 1.0 | 2.0 | 0.00 | 0.00 | 0.00 | 92 | 1017.1 |
| 20260506194533 | 44 | 336 | 0.0 | 3.0 | 0.00 | 0.00 | 0.00 | 92 | 1017.1 |
| 20260506194059 | 44 | 345 | 2.0 | 3.0 | 0.00 | 0.00 | 0.00 | 93 | 1016.0 |
| 20260506193630 | 44 | 19 | 1.0 | 3.0 | 0.00 | 0.00 | 0.00 | 93 | 1017.1 |
| 20260506193528 | 44 | 354 | 1.0 | 3.0 | 0.00 | 0.00 | 0.00 | 93 | 1017.4 |
| 20260506193023 | 44 | 326 | 3.0 | 5.0 | 0.00 | 0.00 | 0.00 | 93 | 1016.4 |
| 20260506192644 | 44 | 349 | 2.0 | 4.0 | 0.00 | 0.00 | 0.00 | 93 | 1017.4 |
| 20260506192618 | 44 | 358 | 2.0 | 4.0 | 0.00 | 0.00 | 0.00 | 93 | 1017.4 |
| 20260506192020 | 44 | 344 | 1.0 | 3.0 | 0.00 | 0.00 | 0.00 | 93 | 1016.4 |
| 20260506191600 | 44 | 354 | 2.0 | 4.0 | 0.00 | 0.00 | 0.00 | 93 | 1017.4 |
| 20260506191522 | 44 | 8 | 2.0 | 4.0 | 0.00 | 0.00 | 0.00 | 93 | 1017.4 |
| 20260506191033 | 44 | 328 | 1.0 | 4.0 | 0.00 | 0.00 | 0.00 | 93 | 1016.4 |
| 20260506190844 | 44 | 320 | 2.0 | 4.0 | 0.00 | 0.00 | 0.00 | 93 | 1017.4 |
| 20260506190552 | 44 | 329 | 1.0 | 4.0 | 0.00 | 0.00 | 0.00 | 93 | 1017.4 |
| 20260506190029 | 44 | 355 | 1.0 | 4.0 | 0.00 | 0.00 | 0.00 | 93 | 1016.4 |
| 20260506185835 | 44 | 328 | 2.0 | 4.0 | 0.00 | 0.00 | 0.00 | 93 | 1017.4 |
| 20260506185615 | 44 | 327 | 2.0 | 4.0 | 0.00 | 0.00 | 0.00 | 93 | 1017.7 |
| 20260506185043 | 45 | 43 | 2.0 | 4.0 | 0.00 | 0.00 | 0.00 | 93 | 1016.7 |
| 20260506184620 | 45 | 348 | 2.0 | 4.0 | 0.00 | 0.00 | 0.00 | 92 | 1017.4 |
| 20260506184520 | 45 | 352 | 2.0 | 4.0 | 0.00 | 0.00 | 0.00 | 92 | 1017.7 |
| 20260506184021 | 45 | 54 | 2.0 | 4.0 | 0.00 | 0.00 | 0.00 | 93 | 1016.7 |
| 20260506183541 | 45 | 53 | 3.0 | 3.0 | 0.00 | 0.00 | 0.00 | 93 | 1017.4 |
| 20260506183525 | 45 | 57 | 2.0 | 4.0 | 0.00 | 0.00 | 0.00 | 93 | 1017.4 |
| 20260506183026 | 45 | 56 | 2.0 | 4.0 | 0.00 | 0.00 | 0.00 | 93 | 1016.7 |
| 20260506182538 | 45 | 62 | 3.0 | 4.0 | 0.00 | 0.00 | 0.00 | 93 | 1017.4 |
| 20260506182529 | 44 | 60 | 3.0 | 6.0 | 0.00 | 0.00 | 0.00 | 93 | 1017.7 |
| 20260506182023 | 44 | 62 | 2.0 | 4.0 | 0.00 | 0.00 | 0.00 | 94 | 1016.7 |
| 20260506181609 | 44 | 73 | 1.0 | 3.0 | 0.00 | 0.00 | 0.00 | 94 | 1017.4 |
| 20260506181534 | 44 | 78 | 2.0 | 4.0 | 0.00 | 0.00 | 0.00 | 94 | 1017.7 |
| 20260506181039 | 43 | 50 | 1.0 | 3.0 | 0.00 | 0.00 | 0.00 | 94 | 1016.7 |
| 20260506180559 | 44 | 49 | 1.0 | 4.0 | 0.00 | 0.00 | 0.00 | 95 | 1017.7 |
| 20260506180521 | 44 | 55 | 1.0 | 3.0 | 0.00 | 0.00 | 0.00 | 95 | 1017.7 |
| 20260506180044 | 43 | 38 | 1.0 | 4.0 | 0.00 | 0.00 | 0.00 | 94 | 1017.1 |
| 20260506175606 | 43 | 345 | 1.0 | 3.0 | 0.00 | 0.00 | 0.00 | 95 | 1018.1 |
| 20260506175552 | 43 | 346 | 1.0 | 2.0 | 0.00 | 0.00 | 0.00 | 94 | 1017.7 |
| 20260506174624 | 43 | 359 | 2.0 | 4.0 | 0.00 | 0.00 | 0.00 | 95 | 1018.1 |
| 20260506174522 | 43 | 352 | 2.0 | 6.0 | 0.00 | 0.00 | 0.00 | 95 | 1018.1 |
| 20260506174040 | 43 | 41 | 2.0 | 4.0 | 0.00 | 0.00 | 0.00 | 95 | 1017.1 |
| 20260506173557 | 43 | 22 | 1.0 | 3.0 | 0.00 | 0.00 | 0.00 | 94 | 1018.1 |
| 20260506173519 | 43 | 23 | 2.0 | 3.0 | 0.00 | 0.00 | 0.00 | 94 | 1018.1 |
| 20260506173035 | 43 | 19 | 2.0 | 3.0 | 0.00 | 0.00 | 0.00 | 94 | 1017.4 |
| 20260506172607 | 43 | 357 | 2.0 | 2.0 | 0.00 | 0.00 | 0.00 | 93 | 1018.1 |
| 20260506172533 | 43 | 7 | 2.0 | 3.0 | 0.00 | 0.00 | 0.00 | 94 | 1018.4 |
| 20260506172027 | 43 | 343 | 2.0 | 4.0 | 0.00 | 0.00 | 0.00 | 94 | 1017.4 |
| 20260506171613 | 43 | 2 | 2.0 | 3.0 | 0.00 | 0.00 | 0.00 | 94 | 1018.1 |
| 20260506171538 | 43 | 359 | 2.0 | 4.0 | 0.00 | 0.00 | 0.00 | 94 | 1018.4 |
| 20260506171036 | 43 | 337 | 3.0 | 6.0 | 0.00 | 0.00 | 0.00 | 94 | 1017.4 |
| 20260506170551 | 43 | 359 | 2.0 | 3.0 | 0.00 | 0.00 | 0.00 | 94 | 1018.1 |
| 20260506170525 | 43 | 351 | 2.0 | 6.0 | 0.00 | 0.00 | 0.00 | 94 | 1018.4 |
| 20260506170019 | 43 | 334 | 3.0 | 5.0 | 0.00 | 0.00 | 0.00 | 94 | 1017.4 |
| 20260506165530 | 43 | 6 | 2.0 | 5.0 | 0.00 | 0.00 | 0.00 | 94 | 1018.1 |
| 20260506165522 | 43 | 0 | 2.0 | 5.0 | 0.00 | 0.00 | 0.00 | 94 | 1018.4 |
| 20260506165043 | 44 | 4 | 2.0 | 3.0 | 0.00 | 0.00 | 0.00 | 94 | 1017.4 |
| 20260506164630 | 44 | 351 | 1.0 | 2.0 | 0.00 | 0.00 | 0.00 | 94 | 1018.4 |
| 20260506164544 | 44 | 337 | 1.0 | 3.0 | 0.00 | 0.00 | 0.00 | 94 | 1018.4 |
| 20260506164121 | 43 | 328 | 3.0 | 4.0 | 0.00 | 0.00 | 0.00 | 93 | 1018.4 |
| 20260506164020 | 44 | 12 | 1.0 | 3.0 | 0.00 | 0.00 | 0.00 | 94 | 1017.7 |
| 20260506163522 | 43 | 343 | 2.0 | 4.0 | 0.00 | 0.00 | 0.00 | 93 | 1018.8 |
| 20260506163046 | 43 | 315 | 4.0 | 6.0 | 0.00 | 0.00 | 0.00 | 93 | 1017.7 |
| 20260506162611 | 43 | 322 | 4.0 | 7.0 | 0.00 | 0.00 | 0.00 | 93 | 1018.4 |
| 20260506162519 | 43 | 331 | 3.0 | 4.0 | 0.00 | 0.00 | 0.00 | 93 | 1018.8 |
| 20260506162031 | 43 | 333 | 3.0 | 6.0 | 0.00 | 0.00 | 0.00 | 93 | 1017.7 |
| 20260506161559 | 43 | 325 | 3.0 | 4.0 | 0.00 | 0.00 | 0.00 | 93 | 1018.8 |
| 20260506161533 | 43 | 330 | 3.0 | 5.0 | 0.00 | 0.00 | 0.00 | 93 | 1018.8 |
| 20260506161033 | 43 | 330 | 3.0 | 6.0 | 0.00 | 0.00 | 0.00 | 93 | 1018.1 |
| 20260506160529 | 43 | 356 | 3.0 | 4.0 | 0.00 | 0.00 | 0.00 | 93 | 1018.8 |
| 20260506160520 | 43 | 352 | 3.0 | 4.0 | 0.00 | 0.00 | 0.00 | 93 | 1018.8 |
| 20260506160031 | 44 | 344 | 3.0 | 4.0 | 0.00 | 0.00 | 0.00 | 93 | 1018.1 |
| 20260506155655 | 43 | 1 | 3.0 | 5.0 | 0.00 | 0.00 | 0.00 | 93 | 1018.8 |
| 20260506155554 | 43 | 352 | 3.0 | 4.0 | 0.00 | 0.00 | 0.00 | 93 | 1019.1 |
| 20260506155028 | 43 | 332 | 3.0 | 6.0 | 0.00 | 0.00 | 0.00 | 93 | 1018.1 |
| 20260506154556 | 44 | 334 | 3.0 | 4.0 | 0.00 | 0.00 | 0.00 | 92 | 1018.8 |
| 20260506154521 | 44 | 326 | 3.0 | 7.0 | 0.00 | 0.00 | 0.00 | 93 | 1019.1 |
| 20260506154032 | 44 | 321 | 4.0 | 6.0 | 0.00 | 0.00 | 0.00 | 92 | 1018.1 |
| 20260506153554 | 44 | 336 | 3.0 | 5.0 | 0.00 | 0.00 | 0.00 | 92 | 1019.1 |
| 20260506153544 | 44 | 335 | 3.0 | 4.0 | 0.00 | 0.00 | 0.00 | 92 | 1019.1 |
| 20260506153046 | 44 | 327 | 3.0 | 5.0 | 0.00 | 0.00 | 0.00 | 92 | 1018.1 |
| 20260506152540 | 44 | 322 | 5.0 | 8.0 | 0.00 | 0.00 | 0.00 | 92 | 1019.5 |
| 20260506152522 | 44 | 332 | 4.0 | 5.0 | 0.00 | 0.00 | 0.00 | 92 | 1019.1 |
| 20260506152119 | 44 | 317 | 4.0 | 6.0 | 0.00 | 0.00 | 0.00 | 92 | 1018.4 |
| 20260506151655 | 44 | 318 | 5.0 | 7.0 | 0.00 | 0.00 | 0.00 | 91 | 1019.5 |
| 20260506151519 | 44 | 319 | 5.0 | 7.0 | 0.00 | 0.00 | 0.00 | 91 | 1019.5 |
| 20260506151047 | 44 | 309 | 4.0 | 7.0 | 0.00 | 0.00 | 0.00 | 92 | 1018.4 |
| 20260506150524 | 44 | 294 | 4.0 | 8.0 | 0.00 | 0.00 | 0.00 | 92 | 1019.5 |
| 20260506150026 | 44 | 273 | 4.0 | 6.0 | 0.00 | 0.00 | 0.00 | 92 | 1018.4 |
| 20260506145555 | 44 | 285 | 5.0 | 8.0 | 0.00 | 0.00 | 0.00 | 93 | 1019.1 |
| 20260506145540 | 44 | 297 | 4.0 | 6.0 | 0.00 | 0.00 | 0.00 | 93 | 1019.5 |
| 20260506145022 | 44 | 324 | 4.0 | 6.0 | 0.00 | 0.00 | 0.00 | 93 | 1018.4 |
| 20260506144533 | 44 | 314 | 5.0 | 9.0 | 0.00 | 0.00 | 0.00 | 93 | 1019.1 |
| 20260506144525 | 44 | 319 | 4.0 | 9.0 | 0.00 | 0.00 | 0.00 | 93 | 1019.1 |
| 20260506144019 | 44 | 318 | 6.0 | 7.0 | 0.00 | 0.00 | 0.00 | 92 | 1018.4 |
| 20260506143556 | 44 | 320 | 6.0 | 9.0 | 0.00 | 0.00 | 0.00 | 92 | 1019.1 |
| 20260506143521 | 44 | 317 | 6.0 | 9.0 | 0.00 | 0.00 | 0.00 | 92 | 1019.1 |
| 20260506143023 | 44 | 318 | 5.0 | 10.0 | 0.00 | 0.00 | 0.00 | 92 | 1018.1 |
| 20260506142531 | 44 | 317 | 7.0 | 12.0 | 0.00 | 0.00 | 0.00 | 92 | 1019.1 |
| 20260506142526 | 44 | 316 | 7.0 | 12.0 | 0.00 | 0.00 | 0.00 | 92 | 1019.1 |
| 20260506142020 | 44 | 313 | 7.0 | 13.0 | 0.00 | 0.00 | 0.00 | 93 | 1018.1 |
| 20260506141531 | 45 | 300 | 6.0 | 9.0 | 0.00 | 0.00 | 0.00 | 93 | 1019.1 |
| 20260506141054 | 45 | 317 | 6.0 | 8.0 | 0.00 | 0.00 | 0.00 | 93 | 1018.1 |
| 20260506140547 | 45 | 305 | 5.0 | 8.0 | 0.00 | 0.00 | 0.00 | 93 | 1018.8 |
| 20260506140536 | 45 | 312 | 5.0 | 8.0 | 0.00 | 0.00 | 0.00 | 93 | 1019.1 |
| 20260506140031 | 45 | 308 | 5.0 | 8.0 | 0.00 | 0.00 | 0.00 | 93 | 1018.1 |
| 20260506135532 | 45 | 320 | 6.0 | 9.0 | 0.00 | 0.00 | 0.00 | 93 | 1019.1 |
| 20260506135524 | 45 | 319 | 6.0 | 9.0 | 0.00 | 0.00 | 0.00 | 93 | 1019.1 |
| 20260506135044 | 45 | 312 | 5.0 | 9.0 | 0.00 | 0.00 | 0.00 | 93 | 1018.1 |
| 20260506134533 | 45 | 306 | 6.0 | 9.0 | 0.00 | 0.00 | 0.00 | 93 | 1019.1 |
| 20260506134520 | 45 | 305 | 6.0 | 10.0 | 0.00 | 0.00 | 0.00 | 93 | 1018.8 |
| 20260506134031 | 45 | 317 | 5.0 | 7.0 | 0.00 | 0.00 | 0.00 | 92 | 1018.1 |
| 20260506133551 | 45 | 315 | 8.0 | 12.0 | 0.00 | 0.00 | 0.00 | 92 | 1018.8 |
| 20260506133542 | 45 | 312 | 7.0 | 11.0 | 0.00 | 0.00 | 0.00 | 92 | 1019.1 |
| 20260506133018 | 45 | 326 | 5.0 | 9.0 | 0.00 | 0.00 | 0.00 | 93 | 1018.1 |
| 20260506132611 | 45 | 310 | 7.0 | 13.0 | 0.00 | 0.00 | 0.00 | 92 | 1019.1 |
| 20260506132556 | 45 | 312 | 7.0 | 9.0 | 0.00 | 0.00 | 0.00 | 92 | 1018.8 |
| 20260506132041 | 45 | 312 | 9.0 | 13.0 | 0.00 | 0.00 | 0.00 | 93 | 1018.1 |
| 20260506131618 | 45 | 313 | 7.0 | 9.0 | 0.00 | 0.00 | 0.00 | 93 | 1018.8 |
| 20260506131531 | 45 | 316 | 8.0 | 12.0 | 0.00 | 0.00 | 0.00 | 93 | 1019.1 |
| 20260506131020 | 45 | 314 | 6.0 | 8.0 | 0.00 | 0.00 | 0.00 | 93 | 1018.1 |
| 20260506130522 | 45 | 324 | 4.0 | 7.0 | 0.00 | 0.00 | 0.00 | 93 | 1018.8 |
| 20260506130026 | 45 | 301 | 6.0 | 10.0 | 0.00 | 0.00 | 0.00 | 92 | 1018.1 |
| 20260506125628 | 45 | 293 | 6.0 | 8.0 | 0.00 | 0.00 | 0.00 | 92 | 1018.8 |
| 20260506125554 | 45 | 298 | 6.0 | 12.0 | 0.00 | 0.00 | 0.00 | 92 | 1019.1 |
| 20260506125039 | 45 | 288 | 8.0 | 12.0 | 0.00 | 0.00 | 0.00 | 92 | 1018.1 |
| 20260506124541 | 45 | 301 | 7.0 | 11.0 | 0.00 | 0.00 | 0.00 | 92 | 1018.8 |
| 20260506124059 | 45 | 308 | 6.0 | 12.0 | 0.00 | 0.00 | 0.00 | 92 | 1018.1 |
| 20260506123713 | 45 | 289 | 5.0 | 6.0 | 0.00 | 0.00 | 0.00 | 91 | 1018.8 |
| 20260506123520 | 45 | 298 | 6.0 | 11.0 | 0.00 | 0.00 | 0.00 | 92 | 1019.1 |
| 20260506123022 | 46 | 301 | 7.0 | 10.0 | 0.00 | 0.00 | 0.00 | 91 | 1018.1 |
| 20260506122542 | 46 | 303 | 10.0 | 14.0 | 0.00 | 0.00 | 0.00 | 91 | 1018.8 |
| 20260506122525 | 46 | 310 | 8.0 | 19.0 | 0.00 | 0.00 | 0.00 | 91 | 1018.8 |
| 20260506122050 | 46 | 314 | 6.0 | 10.0 | 0.00 | 0.00 | 0.00 | 90 | 1017.7 |
| 20260506121547 | 46 | 303 | 8.0 | 12.0 | 0.00 | 0.00 | 0.00 | 89 | 1018.8 |
| 20260506121530 | 46 | 299 | 8.0 | 12.0 | 0.00 | 0.00 | 0.00 | 89 | 1018.8 |
| 20260506121052 | 47 | 310 | 9.0 | 14.0 | 0.00 | 0.00 | 0.00 | 92 | 1017.7 |
| 20260506120526 | 47 | 293 | 8.0 | 14.0 | 0.00 | 0.00 | 0.00 | 93 | 1018.8 |
| 20260506120040 | 47 | 281 | 6.0 | 9.0 | 0.00 | 0.00 | 0.00 | 93 | 1017.7 |
| 20260506115718 | 48 | 279 | 7.0 | 11.0 | 0.00 | 0.00 | 0.00 | 92 | 1018.8 |
| 20260506115522 | 48 | 278 | 8.0 | 11.0 | 0.00 | 0.00 | 0.00 | 92 | 1018.8 |
| 20260506115042 | 48 | 273 | 7.0 | 9.0 | 0.00 | 0.00 | 0.00 | 92 | 1018.1 |
| 20260506114528 | 48 | 286 | 7.0 | 10.0 | 0.00 | 0.00 | 0.00 | 92 | 1018.8 |
| 20260506114518 | 48 | 281 | 6.0 | 9.0 | 0.00 | 0.00 | 0.00 | 92 | 1018.8 |
| 20260506114058 | 48 | 287 | 9.0 | 10.0 | 0.00 | 0.00 | 0.00 | 91 | 1017.7 |
| 20260506113731 | 48 | 275 | 6.0 | 9.0 | 0.00 | 0.00 | 0.00 | 91 | 1018.4 |
| 20260506113524 | 48 | 264 | 7.0 | 9.0 | 0.00 | 0.00 | 0.00 | 91 | 1018.8 |
| 20260506113033 | 48 | 275 | 6.0 | 11.0 | 0.00 | 0.00 | 0.00 | 91 | 1017.7 |
| 20260506112603 | 48 | 288 | 6.0 | 10.0 | 0.00 | 0.00 | 0.00 | 91 | 1018.4 |
| 20260506112528 | 48 | 280 | 6.0 | 8.0 | 0.00 | 0.00 | 0.00 | 91 | 1018.1 |
| 20260506112031 | 48 | 264 | 6.0 | 9.0 | 0.00 | 0.00 | 0.00 | 90 | 1017.4 |
| 20260506111542 | 48 | 271 | 8.0 | 12.0 | 0.00 | 0.00 | 0.00 | 90 | 1018.1 |
| 20260506111038 | 48 | 256 | 6.0 | 11.0 | 0.00 | 0.00 | 0.00 | 90 | 1017.4 |
| 20260506110530 | 48 | 258 | 6.0 | 9.0 | 0.00 | 0.00 | 0.00 | 90 | 1018.1 |
| 20260506110521 | 49 | 263 | 7.0 | 10.0 | 0.00 | 0.00 | 0.00 | 90 | 1018.1 |
| 20260506110032 | 49 | 287 | 7.0 | 13.0 | 0.00 | 0.00 | 0.00 | 90 | 1017.1 |
| 20260506105535 | 49 | 259 | 5.0 | 6.0 | 0.00 | 0.00 | 0.00 | 91 | 1017.7 |
| 20260506105526 | 49 | 265 | 5.0 | 9.0 | 0.00 | 0.00 | 0.00 | 91 | 1017.7 |
| 20260506105046 | 49 | 250 | 5.0 | 9.0 | 0.00 | 0.00 | 0.00 | 90 | 1016.7 |
| 20260506104608 | 49 | 244 | 7.0 | 13.0 | 0.00 | 0.00 | 0.00 | 90 | 1017.7 |
| 20260506104034 | 49 | 266 | 5.0 | 8.0 | 0.00 | 0.00 | 0.00 | 90 | 1016.7 |
| 20260506103527 | 49 | 270 | 4.0 | 7.0 | 0.00 | 0.00 | 0.00 | 90 | 1017.7 |
| 20260506103518 | 49 | 275 | 5.0 | 7.0 | 0.00 | 0.00 | 0.00 | 90 | 1017.4 |
| 20260506103021 | 49 | 258 | 6.0 | 9.0 | 0.00 | 0.00 | 0.00 | 90 | 1016.7 |
| 20260506102544 | 49 | 258 | 7.0 | 12.0 | 0.00 | 0.00 | 0.00 | 90 | 1017.4 |
| 20260506102045 | 49 | 253 | 6.0 | 9.0 | 0.00 | 0.00 | 0.00 | 90 | 1016.7 |
| 20260506101629 | 49 | 282 | 5.0 | 9.0 | 0.00 | 0.00 | 0.00 | 90 | 1017.4 |
| 20260506101520 | 49 | 276 | 5.0 | 9.0 | 0.00 | 0.00 | 0.00 | 90 | 1017.4 |
| 20260506101048 | 49 | 269 | 4.0 | 7.0 | 0.00 | 0.00 | 0.00 | 90 | 1016.4 |
| 20260506100646 | 49 | 241 | 4.0 | 8.0 | 0.00 | 0.00 | 0.00 | 89 | 1017.1 |
| 20260506100543 | 49 | 249 | 5.0 | 6.0 | 0.00 | 0.00 | 0.00 | 89 | 1017.4 |
| 20260506100018 | 49 | 260 | 5.0 | 8.0 | 0.00 | 0.00 | 0.00 | 89 | 1016.0 |
| 20260506095550 | 49 | 224 | 4.0 | 8.0 | 0.00 | 0.00 | 0.00 | 89 | 1017.1 |
| 20260506095521 | 49 | 218 | 5.0 | 8.0 | 0.00 | 0.00 | 0.00 | 89 | 1017.1 |
| 20260506095032 | 49 | 245 | 6.0 | 12.0 | 0.00 | 0.00 | 0.00 | 89 | 1016.4 |
| 20260506094601 | 49 | 255 | 5.0 | 8.0 | 0.00 | 0.00 | 0.00 | 89 | 1016.7 |
| 20260506094555 | 49 | 254 | 5.0 | 8.0 | 0.00 | 0.00 | 0.00 | 89 | 1017.1 |
| 20260506094020 | 49 | 247 | 6.0 | 12.0 | 0.00 | 0.00 | 0.00 | 89 | 1016.4 |
| 20260506093540 | 50 | 261 | 4.0 | 8.0 | 0.00 | 0.00 | 0.00 | 89 | 1017.1 |
| 20260506093522 | 50 | 265 | 5.0 | 10.0 | 0.00 | 0.00 | 0.00 | 89 | 1017.4 |
| 20260506093051 | 50 | 250 | 5.0 | 9.0 | 0.00 | 0.00 | 0.00 | 88 | 1016.4 |
| 20260506092518 | 50 | 266 | 5.0 | 8.0 | 0.00 | 0.00 | 0.00 | 88 | 1017.1 |
| 20260506092022 | 50 | 287 | 6.0 | 13.0 | 0.00 | 0.00 | 0.00 | 88 | 1016.4 |
| 20260506091532 | 50 | 243 | 6.0 | 11.0 | 0.00 | 0.00 | 0.00 | 88 | 1017.4 |
| 20260506091523 | 50 | 237 | 7.0 | 11.0 | 0.00 | 0.00 | 0.00 | 88 | 1017.4 |
| 20260506091034 | 50 | 260 | 7.0 | 10.0 | 0.00 | 0.00 | 0.00 | 88 | 1016.4 |
| 20260506090632 | 50 | 279 | 6.0 | 9.0 | 0.00 | 0.00 | 0.00 | 89 | 1017.4 |
| 20260506090528 | 50 | 271 | 6.0 | 9.0 | 0.00 | 0.00 | 0.00 | 89 | 1017.4 |
| 20260506090031 | 50 | 262 | 7.0 | 10.0 | 0.00 | 0.00 | 0.00 | 89 | 1016.4 |